Regional Weather Roundup
Issued by NWS

Home | Current Version | Previous Version | Text Only | Print | Product List | Glossary Off
Versions: 1 2 3 4 5 6 7 8 9 10 11 12 13 14 15 16 17 18 19 20 21 22 23 24 25 26 27 28 29 30 31 32 33 34 35 36 37 38 39 40 41 42 43 44 45 46 47 48 49 50

000
ASUS43 KTOP 010508
RWRKS

WEATHER ROUNDUP FOR KANSAS
NATIONAL WEATHER SERVICE GOODLAND KS
1200 AM CDT SUN MAY 01 2016

NOTE:  "FAIR" INDICATES FEW OR NO CLOUDS BELOW 12,000 FEET WITH NO
SIGNIFICANT WEATHER AND/OR OBSTRUCTIONS TO VISIBILITY.

KSZ001>006-013>018-027>032-041>047-010600-
NORTHWEST KANSAS

CITY           SKY/WX    TMP DP  RH WIND       PRES   REMARKS
GOODLAND       CLOUDY    35  33  92 N22G33    30.01R WCI  23
HAYS           CLOUDY    43  32  65 NW9       29.95S
HILL CITY      CLOUDY    41  36  82 NW13      29.97R
RUSSELL        CLOUDY    44  39  82 W10       29.92R
$$

KSZ061>065-074>080-084>089-010600-
SOUTHWEST KANSAS

CITY           SKY/WX    TMP DP  RH WIND       PRES   REMARKS
DODGE CITY     MOCLDY    38  33  82 NW12      29.99R WCI  30
ELKHART          N/A     39  28  64 NW15        N/A  WCI  31
GARDEN CITY    CLOUDY    40  32  73 NW16G26   30.01R WCI  31
GREAT BEND     CLOUDY    43  34  70 W9        29.95S
LIBERAL        CLEAR     39  28  65 NW15G21   30.05S WCI  31
PRATT          CLEAR     40  37  86 NW10      29.96S WCI  34
$$

KSZ066>073-081>083-090>101-010600-
SOUTHEAST KANSAS

CITY           SKY/WX    TMP DP  RH WIND       PRES   REMARKS
CHANUTE        CLEAR     52  44  74 W5        29.91R
COFFEYVILLE    CLEAR     54  47  77 W6        29.93R
HUTCHINSON     CLOUDY    49  43  80 NW8       29.93R
MEDICINE LODGE   N/A     45  39  79 NW9       29.96R
NEWTON         CLEAR     46  37  71 W5        29.93F
PARSONS        CLEAR     49  47  93 CALM      29.93R
WICHITA INTL   CLEAR     45  41  86 W5        29.93R
WICHITA JABRA  CLEAR     47  42  83 W6        29.92S
WICHITA MCCONL CLEAR     50  42  74 NW6       29.93R
WINFIELD       CLEAR     47  43  86 W3        29.95R
$$

KSZ007>012-019>026-033>040-048>060-102>105-010600-
NORTHEAST KANSAS

CITY           SKY/WX    TMP DP  RH WIND       PRES   REMARKS
CONCORDIA      CLOUDY    48  43  82 W9        29.89S
EMPORIA        MOCLDY    50  45  83 W6        29.90R
LAWRENCE       CLOUDY    54  48  80 W5        29.88R
MANHATTAN      CLOUDY    53  44  71 W3        29.89R
MARYSVILLE     CLOUDY    50  46  87 W6        29.87S
OLATHE IND     CLOUDY    55  48  77 W7        29.88R
OLATHE EXE     CLOUDY    55  47  74 NW5       29.88R
SALINA         CLOUDY    50  43  77 W9        29.92R
TOPEKA BILLARD CLOUDY    54  45  71 W6        29.88R
TOPEKA FORBES  CLOUDY    54  46  74 W6        29.88R
$$




USA.gov is the U.S. government's official web portal to all federal, state and local government web resources and services.